Time,TemperatureF,DewpointF,PressureIn,WindDirection,WindDirectionDegrees,WindSpeedMPH,WindSpeedGustMPH,Humidity,HourlyPrecipIn,Conditions,Clouds,dailyrainin,SolarRadiationWatts/m^2,SoftwareType,DateUTC
2013-09-23 00:01:00,53.0,29.0,-100.00,North,4,0.0,0.0,40,0.00,,,0.00,0.000000,,2013-09-23 07:01:00,
2013-09-23 00:42:00,52.0,30.0,-100.00,North,7,0.0,0.0,42,0.00,,,0.00,0.000000,,2013-09-23 07:42:00,
2013-09-23 00:52:00,52.0,30.0,-100.00,North,7,0.0,0.0,42,0.00,,,0.00,0.000000,,2013-09-23 07:52:00,
2013-09-23 01:02:00,52.0,30.0,-100.00,North,7,0.0,0.0,42,0.00,,,0.00,0.000000,,2013-09-23 08:02:00,
2013-09-23 01:23:00,48.0,28.0,-100.00,NW,322,0.0,0.0,45,0.00,,,0.00,0.000000,,2013-09-23 08:23:00,
2013-09-23 01:32:00,48.0,28.0,-100.00,NW,322,0.0,0.0,45,0.00,,,0.00,0.000000,,2013-09-23 08:32:00,
2013-09-23 01:42:00,48.0,28.0,-100.00,NW,322,0.0,0.0,45,0.00,,,0.00,0.000000,,2013-09-23 08:42:00,
2013-09-23 01:52:00,48.0,28.0,-100.00,NW,322,0.0,0.0,45,0.00,,,0.00,0.000000,,2013-09-23 08:52:00,
2013-09-23 02:02:00,48.0,28.0,-100.00,NW,322,0.0,0.0,45,0.00,,,0.00,0.000000,,2013-09-23 09:02:00,
2013-09-23 02:03:00,48.0,28.0,-100.00,NNE,15,0.0,0.0,45,0.00,,,0.00,0.000000,,2013-09-23 09:03:00,
2013-09-23 02:43:00,48.0,28.0,-100.00,NNE,15,0.0,0.0,45,0.00,,,0.00,0.000000,,2013-09-23 09:43:00,
2013-09-23 02:53:00,48.0,28.0,-100.00,NNE,15,0.0,0.0,45,0.00,,,0.00,0.000000,,2013-09-23 09:53:00,
2013-09-23 03:42:00,48.0,29.0,-100.00,NNE,16,0.0,0.0,48,0.00,,,0.00,0.000000,,2013-09-23 10:42:00,
2013-09-23 03:52:00,48.0,29.0,-100.00,NNE,16,0.0,0.0,48,0.00,,,0.00,0.000000,,2013-09-23 10:52:00,
2013-09-23 04:02:00,48.0,29.0,-100.00,NNE,16,0.0,0.0,48,0.00,,,0.00,0.000000,,2013-09-23 11:02:00,
2013-09-23 04:42:00,46.0,28.0,-100.00,NNE,20,0.0,0.0,50,0.00,,,0.00,0.000000,,2013-09-23 11:42:00,
2013-09-23 04:52:00,46.0,28.0,-100.00,NNE,20,0.0,0.0,50,0.00,,,0.00,0.000000,,2013-09-23 11:52:00,
2013-09-23 05:01:00,46.0,28.0,-100.00,NNE,20,0.0,0.0,50,0.00,,,0.00,0.000000,,2013-09-23 12:01:00,
2013-09-23 05:42:00,48.0,31.0,-100.00,ENE,58,0.0,0.0,51,0.00,,,0.00,0.000000,,2013-09-23 12:42:00,
2013-09-23 05:52:00,48.0,31.0,-100.00,ENE,58,0.0,0.0,51,0.00,,,0.00,0.000000,,2013-09-23 12:52:00,
2013-09-23 06:01:00,48.0,31.0,-100.00,ENE,58,0.0,0.0,51,0.00,,,0.00,0.000000,,2013-09-23 13:01:00,
2013-09-23 06:22:00,47.0,30.0,-100.00,North,354,0.0,0.0,51,0.00,,,0.00,0.000000,,2013-09-23 13:22:00,
2013-09-23 06:32:00,47.0,30.0,-100.00,North,354,0.0,0.0,51,0.00,,,0.00,0.000000,,2013-09-23 13:32:00,
2013-09-23 06:42:00,47.0,30.0,-100.00,North,354,0.0,0.0,51,0.00,,,0.00,0.000000,,2013-09-23 13:42:00,
2013-09-23 06:52:00,47.0,30.0,-100.00,North,354,0.0,0.0,51,0.00,,,0.00,0.000000,,2013-09-23 13:52:00,
2013-09-23 07:01:00,47.0,30.0,-100.00,North,354,0.0,0.0,51,0.00,,,0.00,0.000000,,2013-09-23 14:01:00,
2013-09-23 07:43:00,46.0,29.0,-100.00,NNE,17,0.0,0.0,52,0.00,,,0.00,6.000000,,2013-09-23 14:43:00,
2013-09-23 07:52:00,46.0,29.0,-100.00,NNE,17,0.0,0.0,52,0.00,,,0.00,6.000000,,2013-09-23 14:52:00,
2013-09-23 08:02:00,46.0,29.0,-100.00,NNE,17,0.0,0.0,52,0.00,,,0.00,6.000000,,2013-09-23 15:02:00,
2013-09-23 08:43:00,49.0,32.0,-100.00,NNE,20,0.0,0.0,52,0.00,,,0.00,18.000000,,2013-09-23 15:43:00,
2013-09-23 09:03:00,64.0,37.0,-100.00,NNE,18,0.0,0.0,37,-99.99,,,0.00,392.000000,,2013-09-23 16:03:00,
2013-09-23 09:43:00,64.0,37.0,-100.00,NNE,18,0.0,0.0,37,-99.99,,,0.00,392.000000,,2013-09-23 16:43:00,
2013-09-23 09:53:00,64.0,37.0,-100.00,NNE,18,0.0,0.0,37,-99.99,,,0.00,392.000000,,2013-09-23 16:53:00,
2013-09-23 10:42:00,74.0,35.0,-100.00,East,98,0.0,0.0,24,0.00,,,0.00,624.000000,,2013-09-23 17:42:00,
2013-09-23 10:52:00,74.0,35.0,-100.00,East,98,0.0,0.0,24,0.00,,,0.00,624.000000,,2013-09-23 17:52:00,
2013-09-23 11:02:00,74.0,35.0,-100.00,East,98,0.0,0.0,24,0.00,,,0.00,624.000000,,2013-09-23 18:02:00,
2013-09-23 11:42:00,73.0,38.0,-100.00,SSE,165,0.0,0.0,28,0.00,,,0.00,756.000000,,2013-09-23 18:42:00,
2013-09-23 11:52:00,73.0,38.0,-100.00,SSE,165,0.0,0.0,28,0.00,,,0.00,756.000000,,2013-09-23 18:52:00,
2013-09-23 12:02:00,73.0,38.0,-100.00,SSE,165,0.0,0.0,28,0.00,,,0.00,756.000000,,2013-09-23 19:02:00,
2013-09-23 12:42:00,77.0,39.0,-100.00,SSE,151,0.0,0.0,26,0.00,,,0.00,827.000000,,2013-09-23 19:42:00,
2013-09-23 12:53:00,77.0,39.0,-100.00,SSE,151,0.0,0.0,26,0.00,,,0.00,827.000000,,2013-09-23 19:53:00,
2013-09-23 13:02:00,77.0,39.0,-100.00,SSE,151,0.0,0.0,26,0.00,,,0.00,827.000000,,2013-09-23 20:02:00,
2013-09-23 13:22:00,79.0,40.0,-100.00,South,169,0.0,0.0,25,0.00,,,0.00,836.000000,,2013-09-23 20:22:00,
2013-09-23 13:32:00,79.0,40.0,-100.00,South,169,0.0,0.0,25,0.00,,,0.00,836.000000,,2013-09-23 20:32:00,
2013-09-23 13:42:00,79.0,40.0,-100.00,South,169,0.0,0.0,25,0.00,,,0.00,836.000000,,2013-09-23 20:42:00,
2013-09-23 13:52:00,79.0,40.0,-100.00,South,169,0.0,0.0,25,0.00,,,0.00,836.000000,,2013-09-23 20:52:00,
2013-09-23 14:02:00,79.0,40.0,-100.00,South,169,0.0,0.0,25,0.00,,,0.00,836.000000,,2013-09-23 21:02:00,
2013-09-23 14:03:00,81.0,41.0,-100.00,NE,35,0.0,0.0,24,0.00,,,0.00,779.000000,,2013-09-23 21:03:00,
2013-09-23 14:44:00,81.0,41.0,-100.00,NE,35,0.0,0.0,24,0.00,,,0.00,779.000000,,2013-09-23 21:44:00,
2013-09-23 14:54:00,81.0,41.0,-100.00,NE,35,0.0,0.0,24,0.00,,,0.00,779.000000,,2013-09-23 21:54:00,
2013-09-23 15:43:00,83.0,40.0,-100.00,SE,143,0.0,0.0,22,0.00,,,0.00,667.000000,,2013-09-23 22:43:00,
2013-09-23 15:54:00,83.0,40.0,-100.00,SE,143,0.0,0.0,22,0.00,,,0.00,667.000000,,2013-09-23 22:54:00,
2013-09-23 16:02:00,83.0,40.0,-100.00,SE,143,0.0,0.0,22,0.00,,,0.00,667.000000,,2013-09-23 23:02:00,
2013-09-23 16:42:00,83.0,39.0,-100.00,SE,127,0.0,0.0,21,0.00,,,0.00,508.000000,,2013-09-23 23:42:00,
2013-09-23 16:54:00,83.0,39.0,-100.00,SE,127,0.0,0.0,21,0.00,,,0.00,508.000000,,2013-09-23 23:54:00,
2013-09-23 17:01:00,83.0,39.0,-100.00,SE,127,0.0,0.0,21,0.00,,,0.00,508.000000,,2013-09-24 00:01:00,
2013-09-23 17:22:00,77.0,46.0,-100.00,NW,307,0.0,0.0,34,0.00,,,0.00,302.000000,,2013-09-24 00:22:00,
2013-09-23 17:32:00,77.0,46.0,-100.00,NW,307,0.0,0.0,34,0.00,,,0.00,302.000000,,2013-09-24 00:32:00,
2013-09-23 17:43:00,77.0,46.0,-100.00,NW,307,0.0,0.0,34,0.00,,,0.00,302.000000,,2013-09-24 00:43:00,
2013-09-23 17:52:00,77.0,46.0,-100.00,NW,307,0.0,0.0,34,0.00,,,0.00,302.000000,,2013-09-24 00:52:00,
2013-09-23 18:01:00,77.0,46.0,-100.00,NW,307,0.0,0.0,34,0.00,,,0.00,302.000000,,2013-09-24 01:01:00,
2013-09-23 19:52:00,60.0,42.0,-100.00,North,0,0.0,0.0,52,-99.99,,,0.00,2.000000,,2013-09-24 02:52:00,
2013-09-23 20:02:00,60.0,42.0,-100.00,North,0,0.0,0.0,52,-99.99,,,0.00,2.000000,,2013-09-24 03:02:00,
2013-09-23 20:03:00,60.0,39.0,-100.00,NNE,14,0.0,0.0,45,0.00,,,-99.99,0.000000,,2013-09-24 03:03:00,
2013-09-23 20:44:00,60.0,39.0,-100.00,NNE,14,0.0,0.0,45,0.00,,,-99.99,0.000000,,2013-09-24 03:44:00,
2013-09-23 20:54:00,60.0,39.0,-100.00,NNE,14,0.0,0.0,45,0.00,,,-99.99,0.000000,,2013-09-24 03:54:00,
2013-09-23 21:03:00,57.0,39.0,-100.00,West,270,0.0,0.0,51,0.00,,,0.00,0.000000,,2013-09-24 04:03:00,
2013-09-23 21:24:00,57.0,39.0,-100.00,West,270,0.0,0.0,51,0.00,,,0.00,0.000000,,2013-09-24 04:24:00,
2013-09-23 21:34:00,57.0,39.0,-100.00,West,270,0.0,0.0,51,0.00,,,0.00,0.000000,,2013-09-24 04:34:00,
2013-09-23 21:44:00,57.0,39.0,-100.00,West,270,0.0,0.0,51,0.00,,,0.00,0.000000,,2013-09-24 04:44:00,
2013-09-23 21:54:00,57.0,39.0,-100.00,West,270,0.0,0.0,51,0.00,,,0.00,0.000000,,2013-09-24 04:54:00,
2013-09-23 22:23:00,55.0,34.0,-100.00,West,260,0.0,0.0,45,0.00,,,0.00,0.000000,,2013-09-24 05:23:00,
2013-09-23 22:34:00,55.0,34.0,-100.00,West,260,0.0,0.0,45,0.00,,,0.00,0.000000,,2013-09-24 05:34:00,
2013-09-23 22:43:00,55.0,34.0,-100.00,West,260,0.0,0.0,45,0.00,,,0.00,0.000000,,2013-09-24 05:43:00,
2013-09-23 22:53:00,55.0,34.0,-100.00,West,260,0.0,0.0,45,0.00,,,0.00,0.000000,,2013-09-24 05:53:00,
2013-09-23 23:02:00,55.0,34.0,-100.00,West,260,0.0,0.0,45,0.00,,,0.00,0.000000,,2013-09-24 06:02:00,
2013-09-23 23:03:00,57.0,32.0,-100.00,NNE,12,0.0,0.0,38,0.00,,,0.00,0.000000,,2013-09-24 06:03:00,
2013-09-23 23:42:00,57.0,32.0,-100.00,NNE,12,0.0,0.0,38,0.00,,,0.00,0.000000,,2013-09-24 06:42:00,
2013-09-23 23:52:00,57.0,32.0,-100.00,NNE,12,0.0,0.0,38,0.00,,,0.00,0.000000,,2013-09-24 06:52:00,